STARLINK-5578, 55374

Orbit data source: Space-Track

STARLINK-5578, 55374 is a payload satellite owned by SpaceX/Seattle (US) in LEO that was launched on Thu, 26 Jan 2023 UTC via an FALCON 9 launch vehicle from the Air Force Eastern Test Range (AFETR). Payload-class satellites include a variety of spacecraft equipped with specific instruments for various scientific and technological missions. These include communications satellites like Starlink; space stations such as the ISS; scientific satellites like the Hubble; Earth observation satellites from companies like Planet Labs, Umbra, and HawkEye 360; GPS; miniature CubeSats for education and research; and military/defense satellites.

Loading next visibility...
Identifier
55374, 2023-013AV
Orbit
LEO
Country
Flag of USUS
Related business
Manufacturer
SpaceX/Seattle
Mission
Operational Commercial Communications
Bus & Motor
STARLINK, Unknown motor
Mass
305 kg wet, ~290 kg dry
Launch date (UTC)
2023-01-26 (3 years ago)
Launch vehicle
FALCON 9
Launch site
Air Force Eastern Test Range (AFETR)
Object type
Payload
Rocket body
Debris
Shape & HBR
Box + 1 Pan, 10.1 m
Radar Cross Section
13.562 m², Large (>1 m²)

Expand to show TLE details & history
Last TLE update: 2 days ago

TLE from 2 days ago
0 STARLINK-5578
1 55374U 23013AV  26170.98009486 -.00000581  00000-0 -11613-4 0  9995
2 55374  43.0018 104.1495 0000749 258.8525 101.2242 15.27572866187109
Epoch: 2026-06-19T23:31Z
TLE epoch observation values (Epoch: 2026-06-19T23:31:20.195Z)
Latitude
-0.00007°
Longitude
-156.88601°
Altitude
482.946 km
Speed
7.626 km/s
True Right ascension
06h 56m 35s
True Declination
0° 00' 00"
Sunlit
Object was in daylight at epoch
Visualization orbit readout
Latitude
Unknown
Longitude
Unknown
Altitude
Unknown
Speed
Unknown
Apparent Right ascension
Unknown
Apparent Declination
Unknown
Sunlit
N/A
Visualization observer readout
Local Sidereal Time
21:37:53
Azimuth
Unknown
Elevation
Unknown
Doppler factor
Unknown
Orbital elements
Apogee altitude
485.529 km
Perigee altitude
484.501 km
Semi-major axis
6,863.152 km
Eccentricity
0.00007
Inclination
43.0018°
RAAN
104.1495°
Arg. of periapsis
258.8525°
True anomaly
101.23262°
Mean anomaly
101.2242°
Eccentric anomaly
101.22841°
Mean motion
3.81731 °/min
Orbital period
94.31 mins
BSTAR
-0.000011613
Loading maneuver chart data...
Computing Atmospheric mass density...
Loading historical data...
Loading historical data...
Loading historical data...
Loading historical data...
Loading historical data...
Loading historical data...
Loading historical data...

Documentation

Showing up to 5 results
|